Location: Central Falls
(41.8900°N, 71.3929°W)
Time: 11:51:27
(UTC+00:00)

A-11 Canister half - Pass Details

Date: 11 December 2023
Orbit: 1526 x 1682 km, 47.3° (Epoch: 20 February)

Event Time Altitude Azimuth Distance (km) Brightness Sun altitude
Rises 04:27:32 0° 297° (WNW) 4,925 - -70.9°
Reaches altitude 10° 04:30:46 10° 294° (WNW) 3,924 - -71.0°
Maximum altitude 04:40:34 61° 218° (SW) 1,817 - -71.1°
Drops below altitude 10° 04:50:03 10° 141° (SE) 3,800 - -70.9°
Sets 04:53:08 0° 138° (SE) 4,762 - -70.8°
